CAPE
0 0 98 0 0 0 0 7 0 0 0 0 0 0 0 0 0 0 0 0 0 0 0 0 1 0 1 5 3 3 6 7 7 5 3 3 3 1 1 0 0 1 2 2 3 5 6 7 5
0 0 0 0 0 0 4 0 0 0 0 0 0 0 0 0 0 0 0 0 0 0 0 0 0 0 0 5 1 0 0 2 2 2 1 2 1 1 0 0 0 0 0 0 1 3 4 2 2
0 0 0 0 0 0 0 0 0 0 0 0 0 0 0 0 0 0 0 0 0 0 0 0 0 0 0 1 1 0 0 0 2 1 0 0 0 0 0 0 0 0 0 0 0 1 0 0 0
0 0 0 0 0 0 0 0 0 0 0 0 0 0 0 0 0 0 0 0 0 0 0 0 0 0 0 0 1 0 0 0 2 0 0 0 0 0 0 0 0 0 0 0 0 0 0 0 0
0 0 0 0 0 0 0 0 0 0 0 0 0 0 0 0 0 0 0 0 0 0 0 0 0 0 0 0 0 0 0 0 0 0 0 0 0 0 0 0 0 0 0 0 0 0 0 0 0
0 0 0 0 5 0 0 0 0 0 0 0 0 0 0 0 0 0 0 0 0 0 0 0 0 0 0 0 0 0 0 0 0 0 0 0 0 0 0 0 0 0 0 0 0 0 0 0 0
0 0 0 0 0 0 0 0 0 0 0 0 0 0 0 0 0 0 0 0 0 0 0 0 0 0 0 0 0 0 0 0 0 0 0 0 0 0 0 0 0 0 0 0 0 0 0 0 0
0 0 0 0 0 0 0 0 0 0 0 0 0 0 0 0 0 0 0 0 0 0 0 0 0 0 0 0 0 0 0 0 0 0 0 0 0 0 0 0 0 0 0 0 0 0 0 0 0
0 0 0 0 0 0 0 0 0 0 0 0 0 0 0 0 0 0 0 0 0 0 0 0 0 0 0 0 0 0 0 0 0 0 0 0 0 0 0 0 0 0 0 0 0 0 0 0 0
0 0 0 0 0 0 0 0 0 0 0 0 0 0 0 0 0 0 0 0 0 0 0 0 0 0 0 0 0 0 0 0 0 0 0 0 0 0 0 0 0 0 0 0 0 0 0 0 0
0 0 0 0 0 0 0 0 0 0 0 0 0 0 0 0 0 0 0 0 0 0 0 0 0 0 0 0 0 0 0 0 0 0 0 0 0 0 0 0 0 0 0 0 0 0 0 0 0
0 0 0 0 0 0 0 0 0 0 0 0 0 0 0 0 0 0 0 0 0 0 0 0 0 0 0 0 0 0 0 0 0 0 0 0 0 0 0 0 0 0 0 0 0 0 0 0 0
0 0 0 0 0 0 0 0 0 0 0 0 0 0 0 0 0 0 0 0 0 0 0 0 0 0 0 0 0 0 0 0 0 0 0 0 0 0 0 0 0 0 0 0 0 0 0 0 0
0 0 0 0 0 0 0 0 0 0 0 0 0 0 0 0 0 0 0 0 0 0 0 0 0 0 0 0 0 0 0 0 0 0 0 0 0 0 0 0 0 0 0 0 0 0 0 0 0
0 0 0 0 0 0 0 0 0 0 0 0 0 0 0 0 0 0 0 0 0 0 0 0 0 0 0 0 0 0 0 0 0 0 0 0 0 0 0 0 0 0 0 0 0 0 0 0 0
0 0 0 0 0 0 0 0 0 0 0 0 0 0 0 0 0 0 0 0 0 0 0 0 0 0 0 0 0 0 0 0 0 0 0 0 0 0 0 0 0 1 2 0 0 0 1 0 0
0 0 0 0 0 0 0 0 0 0 0 0 0 0 0 0 0 0 0 0 0 0 0 0 0 0 0 0 0 0 0 0 0 0 0 0 0 0 0 0 0 2 1 1 3 2 3 1 0
0 0 0 0 0 0 0 0 0 0 0 0 0 0 0 0 0 0 0 0 0 0 0 0 0 0 0 0 0 0 0 0 0 0 0 0 0 0 0 0 0 2 2 2 2 2 3 1 1
0 0 0 0 0 0 0 0 0 0 0 0 0 0 0 0 0 0 0 0 0 0 0 0 0 0 0 0 0 0 0 0 0 0 0 0 0 0 0 0 0 2 3 4 3 1 0 1 0
0 0 0 0 0 0 0 0 0 0 0 0 0 0 0 0 0 0 0 0 0 0 0 0 0 0 0 0 0 0 0 0 0 0 0 0 0 0 0 0 0 4 7 5 2 0 0 1 1
0 0 0 0 0 0 0 0 0 0 0 0 0 0 0 0 0 0 0 0 0 0 0 0 0 0 0 0 0 0 0 0 0 0 0 0 0 0 0 0 0 3 7 1 1 1 2 4 3
0 0 0 0 0 0 0 0 0 5 0 0 0 0 0 0 0 0 0 0 0 0 0 0 0 0 0 0 0 0 0 0 0 0 0 0 0 0 0 0 0 3 8 5 4 0 5 7 4
0 0 0 0 0 0 0 6 11 22 0 0 0 0 0 0 0 0 0 0 0 0 0 0 0 0 0 0 0 0 0 0 0 0 0 0 0 0 0 0 0 1 3 5 5 1 2 7 5
0 0 0 9 13 15 21 49 41 0 0 0 0 0 0 0 0 0 0 0 0 0 0 0 0 0 0 0 0 0 0 0 0 0 0 0 0 0 0 0 0 0 4 3 1 8 12 8 6
12 16 5 0 14 12 17 8 93 0 0 0 0 0 0 0 0 0 0 0 0 0 0 0 0 0 0 0 0 0 0 0 0 0 0 0 0 0 0 0 0 0 5 4 8 13 9 5 3
2 11 19 1 9 12 57 39 0 0 0 0 0 0 0 0 0 0 0 0 0 0 0 0 0 0 0 0 0 0 0 0 0 0 0 0 0 0 0 0 0 2 2 15 16 12 6 6 2
4 34 41 7 14 33 74 65 14 0 0 0 0 0 0 0 0 0 0 0 0 0 0 0 0 0 0 0 0 0 0 0 0 0 0 0 0 0 0 0 0 1 7 13 2 1 0 1 0
41 28 20 22 0 0 0 20 5 3 10 0 0 0 0 0 0 0 0 0 0 0 0 0 0 0 0 0 0 0 0 0 0 0 0 0 0 0 0 0 0 2 7 8 5 1 7 1 2
40 73 24 8 0 0 2 7 15 0 1 0 0 0 0 0 0 0 0 0 0 0 0 0 0 0 0 0 0 0 0 0 0 0 0 0 0 0 0 0 0 0 10 6 2 0 0 1 0
32 97 0 0 0 0 0 4 13 0 0 0 0 0 0 0 0 0 0 0 0 0 0 0 0 0 0 0 0 0 0 0 0 0 0 0 0 0 0 0 0 4 5 3 1 0 0 0 0
CIN
-0 -0 -417 -0 -0 -0 -0 -30 -0 -0 -0 -0 -0 -0 -0 -0 -0 -0 -0 -0 -0 -0 -0 -0 -0 -0 -0 -1 -0 -0 -0 -0 -0 -0 -0 -0 -0 -1 -0 -0 -1 -0 -0 -0 -1 -0 -0 -1 -0
-0 -0 -0 -0 -0 -0 -13 -0 -0 -0 -0 -0 -0 -0 -0 -0 -0 -0 -0 -0 -0 -0 -0 -0 -0 -0 -0 -0 -0 -0 -0 -0 -0 -0 -0 -0 -0 -0 -0 -0 -0 -0 -0 -0 -0 -1 -0 -0 -0
-0 -0 -0 -0 -0 -0 -0 -0 -0 -0 -0 -0 -0 -0 -0 -0 -0 -0 -0 -0 -0 -0 -0 -0 -0 -0 -0 -0 -0 -0 -0 -0 -0 -0 -0 -0 -0 -0 -0 -0 -0 -0 -0 -0 -0 -1 -0 -0 -0
-0 -0 -0 -0 -0 -0 -0 -0 -0 -0 -0 -0 -0 -0 -0 -0 -0 -0 -0 -0 -0 -0 -0 -0 -0 -0 -0 -0 -0 -0 -0 -0 -0 -0 -0 -0 -0 -0 -0 -0 -0 -0 -0 -0 -0 -0 -0 -0 -0
-0 -0 -0 -0 -0 -0 -0 -0 -0 -0 -0 -0 -0 -0 -0 -0 -0 -0 -0 -0 -0 -0 -0 -0 -0 -0 -0 -0 -0 -0 -0 -0 -0 -0 -0 -0 -0 -0 -0 -0 -0 -0 -0 -0 -0 -0 -0 -0 -0
-0 -0 -0 -0 -5 -0 -0 -0 -0 -0 -0 -0 -0 -0 -0 -0 -0 -0 -0 -0 -0 -0 -0 -0 -0 -0 -0 -0 -0 -0 -0 -0 -0 -0 -0 -0 -0 -0 -0 -0 -0 -0 -0 -0 -0 -0 -0 -0 -0
-0 -0 -0 -0 -0 -0 -0 -0 -0 -0 -0 -0 -0 -0 -0 -0 -0 -0 -0 -0 -0 -0 -0 -0 -0 -0 -0 -0 -0 -0 -0 -0 -0 -0 -0 -0 -0 -0 -0 -0 -0 -0 -0 -0 -0 -0 -0 -0 -0
-0 -0 -0 -0 -0 -0 -0 -0 -0 -0 -0 -0 -0 -0 -0 -0 -0 -0 -0 -0 -0 -0 -0 -0 -0 -0 -0 -0 -0 -0 -0 -0 -0 -0 -0 -0 -0 -0 -0 -0 -0 -0 -0 -0 -0 -0 -0 -0 -0
-0 -0 -0 -0 -0 -0 -0 -0 -0 -0 -0 -0 -0 -0 -0 -0 -0 -0 -0 -0 -0 -0 -0 -0 -0 -0 -0 -0 -0 -0 -0 -0 -0 -0 -0 -0 -0 -0 -0 -0 -0 -0 -0 -0 -0 -0 -0 -0 -0
-0 -0 -0 -0 -0 -0 -0 -0 -0 -0 -0 -0 -0 -0 -0 -0 -0 -0 -0 -0 -0 -0 -0 -0 -0 -0 -0 -0 -0 -0 -0 -0 -0 -0 -0 -0 -0 -0 -0 -0 -0 -0 -0 -0 -0 -0 -0 -0 -0
-0 -0 -0 -0 -0 -0 -0 -0 -0 -0 -0 -0 -0 -0 -0 -0 -0 -0 -0 -0 -0 -0 -0 -0 -0 -0 -0 -0 -0 -0 -0 -0 -0 -0 -0 -0 -0 -0 -0 -0 -0 -0 -0 -0 -0 -0 -0 -0 -0
-0 -0 -0 -0 -0 -0 -0 -0 -0 -0 -0 -0 -0 -0 -0 -0 -0 -0 -0 -0 -0 -0 -0 -0 -0 -0 -0 -0 -0 -0 -0 -0 -0 -0 -0 -0 -0 -0 -0 -0 -0 -0 -0 -0 -0 -0 -0 -0 -0
-0 -0 -0 -0 -0 -0 -0 -0 -0 -0 -0 -0 -0 -0 -0 -0 -0 -0 -0 -0 -0 -0 -0 -0 -0 -0 -0 -0 -0 -0 -0 -0 -0 -0 -0 -0 -0 -0 -0 -0 -0 -0 -0 -0 -0 -0 -0 -0 -0
-0 -0 -0 -0 -0 -0 -0 -0 -0 -0 -0 -0 -0 -0 -0 -0 -0 -0 -0 -0 -0 -0 -0 -0 -0 -0 -0 -0 -0 -0 -0 -0 -0 -0 -0 -0 -0 -0 -0 -0 -0 -0 -0 -0 -0 -0 -0 -0 -0
-0 -0 -0 -0 -0 -0 -0 -0 -0 -0 -0 -0 -0 -0 -0 -0 -0 -0 -0 -0 -0 -0 -0 -0 -0 -0 -0 -0 -0 -0 -0 -0 -0 -0 -0 -0 -0 -0 -0 -0 -0 -0 -1 -0 -0 -0 -0 -0 -0
-0 -0 -0 -0 -0 -0 -0 -0 -0 -0 -0 -0 -0 -0 -0 -0 -0 -0 -0 -0 -0 -0 -0 -0 -0 -0 -0 -0 -0 -0 -0 -0 -0 -0 -0 -0 -0 -0 -0 -0 -0 -1 -1 -0 -0 -1 -1 -1 -0
-0 -0 -0 -0 -0 -0 -0 -0 -0 -0 -0 -0 -0 -0 -0 -0 -0 -0 -0 -0 -0 -0 -0 -0 -0 -0 -0 -0 -0 -0 -0 -0 -0 -0 -0 -0 -0 -0 -0 -0 -0 -1 -1 -2 -1 -1 -0 -1 -1
-0 -0 -0 -0 -0 -0 -0 -0 -0 -0 -0 -0 -0 -0 -0 -0 -0 -0 -0 -0 -0 -0 -0 -0 -0 -0 -0 -0 -0 -0 -0 -0 -0 -0 -0 -0 -0 -0 -0 -0 -0 -1 -2 -1 -1 -1 -1 -1 -0
-0 -0 -0 -0 -0 -0 -0 -0 -0 -0 -0 -0 -0 -0 -0 -0 -0 -0 -0 -0 -0 -0 -0 -0 -0 -0 -0 -0 -0 -0 -0 -0 -0 -0 -0 -0 -0 -0 -0 -0 -0 -1 -2 -1 -1 -0 -0 -2 -0
-0 -0 -0 -0 -0 -0 -0 -0 -0 -0 -0 -0 -0 -0 -0 -0 -0 -0 -0 -0 -0 -0 -0 -0 -0 -0 -0 -0 -0 -0 -0 -0 -0 -0 -0 -0 -0 -0 -0 -0 -0 -2 -1 -1 -1 -0 -0 -2 -1
-0 -0 -0 -0 -0 -0 -0 -0 -0 -0 -3 -5 -0 -0 -0 -0 -0 -0 -0 -0 -0 -0 -0 -0 -0 -0 -0 -0 -0 -0 -0 -0 -0 -0 -0 -0 -0 -0 -0 -0 -0 -2 -1 -4 -4 -2 -1 -0 -1
-0 -0 -0 -0 -0 -0 -0 -0 -0 -9 -0 -0 -0 -0 -0 -0 -0 -0 -0 -0 -0 -0 -0 -0 -0 -0 -0 -0 -0 -0 -0 -0 -0 -0 -0 -0 -0 -0 -0 -0 -0 -1 -1 -0 -1 -2 -0 -0 -0
-0 -0 -0 -0 -0 -0 -0 -3 -3 -18 -0 -0 -0 -0 -0 -0 -0 -0 -0 -0 -0 -0 -0 -0 -0 -0 -0 -0 -0 -0 -0 -0 -0 -0 -0 -0 -0 -0 -0 -0 -0 -1 -2 -1 -1 -1 -1 -0 -0
-0 -0 -0 -3 -5 -4 -4 -6 -2 -0 -0 -4 -0 -0 -0 -0 -0 -0 -0 -0 -0 -0 -0 -0 -0 -0 -0 -0 -0 -0 -0 -0 -0 -0 -0 -0 -0 -0 -0 -0 -0 -0 -2 -1 -5 -0 -0 -0 -0
-4 -4 -2 -0 -6 -4 -11 -4 -10 -0 -0 -0 -0 -0 -0 -0 -0 -0 -0 -0 -0 -0 -0 -0 -0 -0 -0 -0 -0 -0 -0 -0 -0 -0 -0 -0 -0 -0 -0 -0 -0 -2 -1 -1 -0 -0 -0 -0 -0
-2 -1 -2 -1 -3 -3 -9 -6 -0 -0 -0 -0 -0 -0 -0 -0 -0 -0 -0 -0 -0 -0 -0 -0 -0 -0 -0 -0 -0 -0 -0 -0 -0 -0 -0 -0 -0 -0 -0 -0 -1 -2 -1 -0 -0 -0 -0 -0 -0
-3 -7 -2 -13 -13 -3 -2 -8 -52 -0 -0 -0 -0 -0 -0 -0 -0 -0 -0 -0 -0 -0 -0 -0 -0 -0 -0 -0 -0 -0 -0 -0 -0 -0 -0 -0 -0 -0 -0 -0 -0 -1 -1 -0 -0 -0 -0 -0 -0
-3 -2 -2 -4 -0 -0 -1 -2 -1 -9 -21 -0 -0 -0 -0 -0 -0 -0 -0 -0 -0 -0 -0 -0 -0 -0 -0 -0 -0 -0 -0 -0 -0 -0 -0 -0 -0 -0 -0 -0 -0 -2 -0 -0 -0 -0 -0 -0 -0
-5 -4 -19 -0 -0 -0 -0 -0 -2 -0 -4 -0 -0 -0 -0 -0 -0 -0 -0 -0 -0 -0 -0 -0 -0 -0 -0 -0 -0 -0 -0 -0 -0 -0 -0 -0 -0 -0 -0 -0 -0 -0 -0 -0 -0 -0 -0 -0 -0
-2 -1 -0 -0 -0 -0 -0 -0 -2 -0 -0 -0 -0 -0 -0 -0 -0 -0 -0 -0 -0 -0 -0 -0 -0 -0 -0 -0 -0 -0 -0 -0 -0 -0 -0 -0 -0 -0 -0 -0 -0 -0 -0 -0 -0 -0 -0 -0 -0
Wind_Speed
11 10 9 13 17 15 23 17 19 20 19 20 20 22 19 22 23 23 12 14 14 15 15 15 17 17 18 18 19 20 20 20 21 23 24 24 26 27 28 28 29 29 29 29 29 29 29 29 29
10 10 13 17 20 26 20 20 20 22 18 17 19 19 21 20 20 13 13 12 14 14 15 15 17 17 17 17 19 19 20 20 21 23 24 25 27 28 29 29 30 30 30 30 30 30 30 30 30
14 12 18 15 19 26 27 24 19 18 16 18 19 20 19 19 15 14 13 12 14 14 15 16 17 17 17 17 18 20 19 20 21 23 24 26 27 29 30 31 31 31 30 31 31 30 31 31 31
13 14 14 17 24 22 23 24 18 18 18 18 17 20 17 17 15 14 12 13 14 15 16 15 16 17 17 17 17 20 20 20 20 23 25 27 28 29 31 31 31 31 31 32 32 31 32 33 33
15 18 20 21 25 19 21 22 18 18 18 17 18 18 17 16 14 12 12 13 14 15 15 16 17 17 17 17 18 20 21 20 21 23 25 27 29 30 31 31 31 32 32 32 32 33 33 34 34
18 14 24 24 27 19 21 20 17 16 17 17 16 16 17 12 11 11 12 13 14 15 15 16 17 17 17 17 18 20 20 20 22 24 25 27 29 30 30 31 32 32 33 33 33 34 34 34 35
14 23 29 29 27 26 17 18 17 16 16 15 14 16 15 9 10 10 11 12 13 14 15 17 17 16 17 17 19 21 21 21 23 24 26 28 29 27 31 31 31 33 33 34 34 35 35 35 35
19 24 25 22 22 23 17 17 18 15 15 16 14 18 14 7 8 9 10 11 12 13 15 16 17 18 18 16 19 21 20 22 23 24 26 29 27 27 28 31 31 34 34 34 35 35 36 36 36
13 20 21 27 24 23 17 18 18 18 15 14 14 19 12 7 8 8 9 10 11 12 14 15 16 18 18 18 19 17 19 20 21 24 26 31 29 31 31 32 31 33 34 35 35 35 36 36 35
13 20 28 23 23 26 18 17 15 15 13 14 15 15 9 7 6 6 7 8 9 11 13 14 16 18 18 19 21 20 21 23 24 26 29 30 31 30 32 31 31 32 33 35 32 35 34 32 32
15 20 26 23 23 22 18 17 14 14 15 14 12 9 6 6 5 5 6 7 8 10 12 14 16 18 20 22 23 23 24 24 25 26 29 31 31 31 31 33 33 34 35 34 35 34 33 34 34
21 22 22 22 21 20 19 16 17 14 18 18 12 5 5 4 4 5 6 7 8 9 12 14 16 18 21 23 24 25 25 26 27 28 28 32 32 32 33 33 34 34 34 35 34 35 35 34 34
22 23 22 20 19 19 19 17 17 15 16 14 9 5 4 4 5 5 6 7 8 9 11 13 15 18 21 22 25 25 25 26 28 27 28 31 32 33 33 34 34 35 35 35 35 35 34 35 34
25 22 22 20 19 19 19 18 18 14 13 11 7 5 4 5 4 5 6 6 7 8 10 13 15 18 21 23 25 26 26 27 27 28 29 30 32 32 33 34 34 34 34 35 35 34 35 34 34
21 23 18 18 16 18 20 21 19 11 10 10 8 7 5 5 4 4 5 6 7 8 9 12 15 18 21 24 26 26 26 27 27 28 28 29 31 32 34 34 34 34 34 36 33 33 33 34 34
22 20 26 12 14 17 21 30 11 11 10 10 8 7 7 5 4 5 5 6 6 7 9 12 15 18 22 25 27 27 27 28 27 28 28 29 32 33 34 34 33 34 35 34 32 33 35 35 35
17 24 25 17 14 20 21 27 14 12 11 11 9 8 8 6 4 4 5 5 6 7 9 12 15 19 23 25 26 25 26 25 27 27 29 31 32 33 33 33 33 34 33 33 34 34 35 36 36
31 31 30 27 19 21 25 24 22 13 12 12 10 9 8 7 5 3 4 5 6 8 9 12 16 20 23 24 27 27 26 27 27 28 29 31 31 33 33 33 33 33 33 33 33 35 34 35 35
29 29 30 30 28 28 28 29 26 14 13 13 12 10 8 7 3 3 4 5 6 8 10 13 16 21 25 28 29 29 30 29 29 30 29 30 30 32 32 32 33 33 33 34 34 33 34 34 34
28 30 32 31 31 33 30 32 29 22 15 14 13 10 8 6 3 2 4 5 6 8 11 14 17 21 26 29 28 29 29 29 28 28 31 29 32 31 31 32 33 33 34 34 32 32 34 34 32
30 33 33 36 38 33 29 32 27 23 16 7 10 9 7 4 2 2 3 4 6 8 11 13 18 22 26 29 28 30 29 29 30 32 31 32 31 31 31 32 32 33 33 32 32 32 31 33 31
31 30 34 36 38 39 34 39 32 25 17 15 11 9 6 2 1 1 3 5 6 9 11 15 19 24 27 29 30 31 31 33 32 31 32 32 31 31 31 31 31 33 31 31 31 30 30 30 30
31 32 33 32 32 36 31 28 24 22 19 19 15 8 2 1 2 2 4 6 8 10 12 16 19 24 27 28 29 30 32 32 31 32 33 32 32 31 31 31 32 31 31 30 32 33 31 27 27
28 28 29 31 27 28 25 21 17 20 18 24 24 14 3 3 3 5 7 8 9 10 14 16 21 25 27 28 29 31 32 32 32 34 34 34 31 31 31 32 31 30 29 32 31 28 27 25 25
24 32 34 29 24 22 21 18 16 17 22 25 26 12 7 7 5 8 10 10 10 12 15 18 22 25 26 28 29 30 31 31 32 34 34 34 33 32 30 31 28 30 31 31 29 32 27 27 26
27 25 25 26 26 26 10 15 11 18 23 23 21 11 9 12 12 14 12 12 12 14 16 20 23 25 27 28 29 29 30 31 31 32 32 32 32 28 27 28 26 25 30 25 29 26 32 28 29
23 25 20 18 17 13 12 13 18 24 25 21 17 11 11 14 16 15 14 13 14 15 18 21 23 25 27 27 29 29 31 31 32 32 32 31 26 21 22 17 22 20 19 29 28 22 20 28 31
17 19 18 19 18 18 17 16 14 21 26 21 18 15 15 18 17 16 15 15 16 17 19 22 24 25 27 28 28 30 31 31 31 30 31 26 18 16 20 19 14 14 15 16 13 7 12 16 17
17 17 20 18 17 17 17 16 17 6 12 20 17 17 20 19 18 18 17 16 17 19 21 22 24 26 27 27 28 30 31 31 31 31 25 16 12 17 14 13 13 14 17 23 23 10 23 19 3
10 20 17 19 17 21 19 16 17 21 22 19 18 21 20 20 20 19 18 18 18 20 21 23 24 25 26 26 27 29 31 31 31 27 17 10 12 12 17 15 13 15 19 18 15 12 13 3 3
Wind_Direction
35 50 42 358 337 334 326 326 335 335 338 345 346 339 344 342 333 327 17 13 17 15 18 19 12 11 8 7 5 3 2 2 359 357 353 350 346 342 340 338 336 334 332 328 326 323 320 316 313
35 24 0 342 323 316 336 333 331 339 343 352 350 344 339 338 350 5 4 18 19 18 16 19 12 11 9 8 6 3 1 0 357 353 348 344 341 339 337 336 334 331 329 327 325 322 319 315 312
356 359 338 329 321 311 313 335 340 345 349 342 342 348 343 342 0 3 23 25 20 18 20 16 15 14 10 8 6 1 360 357 354 350 345 342 340 338 336 335 333 331 329 326 322 320 316 312 309
358 349 341 330 316 332 323 333 339 340 342 342 345 340 354 354 358 7 34 29 25 24 20 25 19 15 10 9 7 360 358 355 352 348 344 340 338 336 335 333 331 329 326 323 321 318 313 310 308
340 334 322 315 319 325 333 333 334 333 338 338 336 337 344 356 20 39 34 31 29 26 29 26 18 14 15 11 7 0 357 354 350 345 342 340 337 336 334 332 330 328 326 323 320 316 313 310 308
329 331 320 317 317 341 338 340 339 340 344 344 344 349 349 14 30 34 39 34 32 28 27 27 22 20 16 13 8 1 357 355 350 345 343 339 337 335 334 332 329 328 325 322 318 316 314 310 308
334 323 312 316 318 325 345 350 345 343 345 346 356 347 355 21 27 40 40 36 32 29 22 18 19 20 19 15 6 358 356 353 348 346 343 340 337 338 334 332 330 327 324 320 317 315 313 312 309
331 321 319 324 323 328 346 349 342 344 343 354 353 339 342 18 45 47 44 39 34 28 24 20 16 12 9 15 4 358 357 352 349 346 344 340 339 338 336 332 331 326 323 320 317 315 312 310 307
341 326 322 321 328 336 341 337 344 343 344 346 351 345 8 56 60 45 36 31 25 24 23 20 16 13 8 6 2 4 359 355 353 347 345 339 338 334 332 330 329 325 323 320 318 317 314 311 309
337 321 319 331 327 326 334 333 340 342 343 341 345 355 44 54 55 40 27 21 20 17 17 21 16 10 8 3 359 357 355 351 349 347 343 340 337 336 333 332 330 327 324 321 322 318 316 315 314
330 319 325 331 329 330 331 332 339 336 331 334 337 3 34 43 41 28 22 24 22 22 21 22 17 10 1 358 355 353 352 350 348 347 344 342 339 337 335 332 329 325 323 323 321 321 319 314 312
319 322 325 328 332 331 327 332 331 329 337 344 349 14 26 29 27 26 23 27 27 23 19 18 16 10 2 354 354 352 350 349 345 344 345 341 339 337 335 333 328 326 323 321 322 320 318 316 312
317 320 325 327 329 329 330 326 328 329 337 343 358 10 11 16 19 23 25 27 27 20 19 17 14 7 1 358 354 351 350 348 345 346 345 342 340 338 335 332 328 325 324 323 322 321 318 315 312
320 319 320 323 325 327 325 324 327 324 340 343 352 352 360 359 9 18 17 16 16 18 19 15 9 5 1 356 354 351 350 348 347 346 344 344 342 340 337 332 329 327 326 325 323 321 319 316 313
322 317 318 318 321 327 326 316 314 329 336 333 333 334 345 349 4 2 9 10 13 16 23 13 7 3 359 356 352 350 350 349 348 346 346 346 344 341 336 332 329 328 327 326 326 324 321 318 314
320 317 318 323 326 326 327 318 323 332 329 322 321 326 329 338 349 3 5 8 20 23 19 11 5 1 357 354 352 352 351 349 349 348 347 346 342 340 336 333 331 330 330 329 327 324 320 316 312
318 320 321 326 326 323 322 316 328 325 322 313 309 312 318 325 340 354 6 16 25 27 15 8 2 358 354 353 353 353 353 352 350 349 347 344 342 341 339 336 334 333 332 329 326 324 321 317 313
318 315 317 319 329 323 318 314 314 309 310 305 302 301 307 310 314 347 9 21 28 21 12 5 1 357 355 356 354 352 350 350 349 347 345 344 343 342 340 338 336 335 333 331 328 324 322 318 314
319 317 315 316 319 316 313 315 314 298 301 300 295 292 297 304 317 354 11 25 20 16 10 3 1 359 357 354 353 352 350 350 349 347 347 346 345 343 341 340 338 337 334 331 328 325 322 319 316
324 319 317 319 322 319 314 312 316 310 289 295 293 289 291 303 311 29 36 25 16 14 6 5 4 1 357 355 355 354 352 351 350 351 346 347 345 344 343 341 338 336 333 332 330 327 322 319 317
324 320 321 318 318 318 313 309 314 308 298 285 306 296 288 287 275 27 22 26 21 15 14 12 4 1 359 357 356 355 354 354 352 349 350 348 347 346 343 340 339 337 335 333 330 326 322 318 315
325 331 324 321 321 317 321 312 317 332 326 317 320 307 286 256 199 17 36 28 35 25 25 12 6 2 360 359 357 356 355 352 353 353 351 350 349 347 345 344 342 339 338 334 331 329 323 320 314
328 331 327 326 324 324 324 317 325 335 350 341 349 343 299 190 124 53 42 54 41 39 24 14 10 4 2 1 2 0 358 357 356 355 353 353 352 351 350 347 344 342 340 336 332 328 324 320 314
340 337 333 330 328 329 336 333 339 353 337 316 339 347 59 118 92 78 60 63 55 44 25 19 10 6 5 5 5 3 1 359 358 357 356 356 356 354 352 351 349 346 344 339 335 332 328 322 315
345 338 336 340 345 345 356 0 6 316 331 339 309 10 82 95 75 75 83 78 63 39 28 18 11 8 9 8 7 6 5 4 2 360 360 358 357 356 358 355 355 350 346 343 340 330 328 321 314
343 351 347 344 345 341 16 14 119 350 346 333 338 359 72 90 89 101 85 73 58 41 28 20 14 12 12 12 11 11 10 7 6 5 4 2 0 4 3 0 358 357 351 351 345 339 328 323 311
353 353 3 357 14 37 169 317 322 335 339 356 353 37 75 87 104 92 81 71 55 42 31 22 20 18 17 16 15 13 12 12 10 9 8 8 13 12 8 1 4 3 2 356 351 349 346 328 312
3 7 5 339 4 287 257 240 224 315 348 27 61 74 86 104 95 89 82 69 55 44 35 29 25 23 20 20 20 18 17 17 16 15 14 21 21 13 13 11 352 355 354 350 309 339 18 6 349
358 357 315 293 262 275 254 296 338 72 17 49 64 80 103 98 96 93 79 67 58 49 38 34 29 25 25 26 24 23 22 20 21 20 27 28 12 21 7 343 347 346 351 12 5 22 16 23 230
29 304 297 260 244 288 263 249 351 16 21 52 65 100 96 99 99 88 81 71 61 49 42 37 34 32 33 33 32 30 26 25 25 31 36 4 18 7 21 13 351 3 18 28 41 50 52 59 136